Regional Weather Roundup
Issued by NWS

Home | Current Version | Previous Version | Graphics & Text | Print | Product List | Glossary On
Versions: 1 2 3 4 5 6 7 8 9 10 11 12 13 14 15 16 17 18 19 20 21 22 23 24 25 26 27
000
ASUS45 KTFX 291410
RWRMT
MONTANA REGIONAL WEATHER ROUNDUP
NATIONAL WEATHER SERVICE GREAT FALLS MT
800 AM MDT SUN MAY 29 2016

NOTE: "FAIR" INDICATES FEW OR NO CLOUDS BELOW 12000 FEET WITH NO
SIGNIFICANT WEATHER AND/OR OBSTRUCTIONS TO VISIBILITY.

MTZ001>007-043-291500-
WEST OF THE DIVIDE

CITY           SKY/WX    TMP DP  RH WIND       PRES   REMARKS
KALISPELL      MOSUNNY   44  41  89 CALM      30.05R
MISSOULA       PTSUNNY   42  39  89 W5        30.10S
BUTTE          SUNNY     39  32  76 CALM      30.13S
MULLAN PASS    SUNNY     43  33  68 VRB5      30.06S
ANACONDA         N/A     48  34  57 S7        30.10S
DEER LODGE       N/A     46  37  71 SE3       30.12S
EUREKA           N/A     46  37  71 S3        30.04S
HAMILTON         N/A     48  36  61 S7        30.08S
LIBBY            N/A     45  37  76 E3        30.05S
$$

MTZ008-052>055-291500-
SOUTHWEST MONTANA

CITY           SKY/WX    TMP DP  RH WIND       PRES   REMARKS
BOZEMAN        SUNNY     49  42  77 SE3       30.11R
DILLON         SUNNY     45  36  70 S7        30.12R
W YELLOWSTONE  SUNNY     34  32  93 CALM      30.21F
ENNIS          SUNNY     48  36  61 VRB5      30.17S
$$

MTZ009-010-012-014-046-048-049-054-291500-
EAST SLOPES AND CENTRAL MONTANA

CITY           SKY/WX    TMP DP  RH WIND       PRES   REMARKS
CUT BANK       PTSUNNY   52  36  54 SW15      29.99S
GREAT FALLS    SUNNY     55  36  48 S13       30.03S
MALMSTROM AFB  SUNNY     55  40  57 SW9       30.02F
HELENA         SUNNY     48  38  68 N3        30.08F
CHOTEAU          N/A     52  36  54 SW8       30.02S
$$

MTZ011-013-016-021-045-047-050-051-291500-
NORTH CENTRAL MONTANA

CITY           SKY/WX    TMP DP  RH WIND       PRES   REMARKS
HAVRE          SUNNY     49  40  71 SW12      29.99F
LEWISTOWN      MOSUNNY   50  38  63 E5        30.06S
N BAR RANCH      N/A     50  39  66 CALM      30.08S
CHINOOK          N/A     52  37  58 NE3       30.00S
$$

MTZ017>020-022>027-061-062-291500-
NORTHEAST MONTANA

CITY           SKY/WX    TMP DP  RH WIND       PRES   REMARKS
GLASGOW        SUNNY     54  39  57 SW3       30.01R
JORDAN           N/A     52  41  66 NW3       30.03S
SIDNEY         MOSUNNY   55  46  71 S6        30.03S
WOLF POINT     SUNNY     53  44  71 SW5       30.03R
PLENTYWOOD       N/A     52  43  71 W6        30.00S
POPLAR           N/A     52  43  71 SW6       30.03R
$$

MTZ028>42-056>058-291500-
SOUTHCENTRAL AND SOUTHEAST MONTANA

CITY           SKY/WX    TMP DP  RH WIND       PRES   REMARKS
BAKER          SUNNY     58  44  60 CALM      30.06S
BILLINGS       MOSUNNY   51  41  68 SW7       30.07S
LIVINGSTON     SUNNY     47  39  74 NW10      30.09S
MILES CITY     SUNNY     55  44  66 S5        30.05R
FORSYTH          N/A     54  46  76 CALM      30.05S
$$

REGIONAL REPORTS...DAKOTAS

CITY           SKY/WX    TMP DP  RH WIND       PRES   REMARKS
WILLISTON      SUNNY     54  48  80 S7        30.02R
MINOT          SUNNY     64  54  69 SW5       29.97R
DICKINSON      SUNNY     58  45  62 W8        30.04R
BEACH            N/A     63  37  39 W7        30.08S
CROSBY           N/A     59  48  67 W13G18    30.00S
WATFORD CITY     N/A     55  48  76 SW8       30.03S
BISMARCK       SUNNY     59  54  83 W3        30.03R
GRAND FORKS    CLOUDY    59  56  89 NW9       29.92S
FARGO          PTSUNNY   64  58  80 NW12      29.93R
BUFFALO SD       N/A     60  46  59 W3        30.01S
RAPID CITY     CLOUDY    59  48  67 NW6       30.10R
$$

REGIONAL REPORTS...WYOMING/IDAHO/WASHINGTON

CITY           SKY/WX    TMP DP  RH WIND       PRES   REMARKS
GILLETTE       MOSUNNY   57  47  69 SE8       30.10R
SHERIDAN       MOSUNNY   56  45  66 CALM      30.08S
BUFFALO WY     SUNNY     57  43  59 SE5       30.13R
CODY           SUNNY     54  36  50 S9        30.11S
YELLOWSTONE LA   N/A     36  30  79 E3        30.27R
IDAHO FALLS    SUNNY     44  38  79 N7        30.14S
SALMON         SUNNY     41  36  81 CALM      30.12S
BOISE          SUNNY     56  34  43 SE9       30.03S
SPOKANE        PTSUNNY   51  41  68 S7        29.99R
$$

REGIONAL REPORTS...ALBERTA

CITY           SKY/WX    TMP DP  RH WIND       PRES   REMARKS
EDMONTON       SUNNY     52  46  82 SE6       29.84S
CALGARY        MOSUNNY   54  34  47 S7        29.87S
LETHBRIDGE     MOSUNNY   54  37  54 SW16      29.93R
MEDICINE HAT   MOSUNNY   54  39  58 S15G21    29.91F
WATERTON GATE    N/A     48  32  53 SW13G18     N/A
CARDSTON         N/A     52  36  54 SW7         N/A
MILK RIVER       N/A     54  37  54 SW9         N/A
ONEFOUR          N/A     50  36  57 S2          N/A
$$

REGIONAL REPORTS...SASKATCHEWAN

CITY           SKY/WX    TMP DP  RH WIND       PRES   REMARKS
SWIFT CURRENT  SUNNY     54  41  62 SW14      29.92F
REGINA         SUNNY     55  50  82 W5        29.94S
SASKATOON      MOSUNNY   52  50  93 SW5       29.90S
CYPRESS HILLS    N/A     46  32  57 SW5         N/A
VAL MARIE        N/A     50  39  66 SW3         N/A
ROCKGLEN         N/A     54  43  66 SW9         N/A
ASSINIBOIA       N/A     46  46 100 NE2         N/A
$$




USA.gov is the U.S. government's official web portal to all federal, state and local government web resources and services.